Погода в Шереховичах

Россия / Новгородская область     58°47′39″N   33°33′19″E
темп.,
°C
ветер,
м/с
пор.,
м/с
влажн.,
%
обл.,
%
осадки,
мм/ч
давл.,
гПа
погр.,
м
8 марта, пн
пн800:00−8ссз61290100 1.4 992767
03:00−11ссз4994100 1.5 996340
06:00−9ссз41091100 0.1 999607
09:00−12с51189100 0.1 1003568
12:00−10с4885100 0.0 1006593
15:00−9ссз5885100 0.1 1009671
18:00−11ссз3891100 0.1 1011522
21:00−14ссз289690 0.1 1014213
9 марта, вт
вт900:00−17с249775 0.0 101592
03:00−20с229537 0.0 101745
06:00−22с22960 0.0 101843
09:00−21с13920 0.0 1020145
12:00−15с227718 0.0 1021474
15:00−13с23749 0.0 1022674
18:00−15с239236 0.0 102271
21:00−19всв239618 0.0 102549
10 марта, ср
ср1000:00−21в27960 0.0 1027151
03:00−23в25950 0.0 1028106
06:00−24в23940 0.0 102970
09:00−21в12850 0.0 1030110
12:00−12в12640 0.0 1030371
15:00−9с12644 0.0 1029688
18:00−12с228525 0.0 102823
21:00−17всв129040 0.0 103020
11 марта, чт
чт1100:00−18вюв129257 0.0 103020
03:00−18юв229234 0.0 103020
06:00−19юв239112 0.0 102942
09:00−16ююв378212 0.0 1029234
12:00−10ююв48670 0.0 1027520
15:00−7ююв59653 0.0 1025755
18:00−9ююв4107448 0.0 1023506
21:00−12ююв5128123 0.0 1022396
12 марта, пт
пт1200:00−14ююв511890 0.0 1021332
03:00−14юв5119321 0.0 1019327
06:00−14юв5129489 0.0 1015345
09:00−13юв6138886 0.0 1013423
12:00−9юв7148056 0.0 1010582
15:00−7юв7149078 0.8 1007967
18:00−7юв71491100 0.8 10041099
21:00−7юв71492100 1.6 1002958